{"data":{"norad_id":59272,"epoch":"2026-05-24T20:21:57.218688Z","epoch_age_seconds":84038,"freshness":"FRESH","line1":"1 59272U 24050U   26144.84857892  .00000236  00000+0  20081-4 0  9999","line2":"2 59272  53.1599 186.9063 0001161  81.1336 278.9796 15.30190613122218","mean_motion":15.30190613,"eccentricity":0.0001161,"inclination_deg":53.1599,"raan_deg":186.9063,"arg_perigee_deg":81.1336,"mean_anomaly_deg":278.9796,"bstar":2.0081e-5,"rev_number":12221,"period_min":94.105922998496,"perigee_km":474.44742002327,"apogee_km":476.0387748819,"semimajor_km":6853.3800974526,"source":"CELESTRAK","updated_at":"2026-05-25T13:38:18.895413Z"}}